When you browse on this site, cookies collect data to enhance your experience and personalize the content and advertising you see.
Visit our Privacy Policy to learn more. By continuing to use the site, you agree to this use of cookies and data.
  • In Romania
  • List of Countries
  • For 7 days
  • Water Temperature
  • Satellite Maps
  • Weather Map
  • Weather Widgets
  • user-avatar
    Login

    Hourly Weather Arredondo

    Today, 25 April, Thursday

    Time Temperature Precipitation Wind Pressure Humidity
    00:00 +6°C° 0 mm 2 mps 697 mmHg 91%
    01:00 +6°C° 0.4 mm 2 mps 698 mmHg 88%
    02:00 +5°C° 0.4 mm 3 mps 698 mmHg 85%
    03:00 +5°C° 0.4 mm 3 mps 698 mmHg 82%
    04:00 +5°C° 0 mm 3 mps 699 mmHg 80%
    05:00 +5°C° 0 mm 4 mps 699 mmHg 78%
    06:00 +4°C° 0 mm 4 mps 699 mmHg 76%
    07:00 +6°C° 0 mm 4 mps 700 mmHg 69%
    08:00 +7°C° 0 mm 5 mps 700 mmHg 61%
    09:00 +9°C° 0 mm 5 mps 701 mmHg 54%
    10:00 +10°C° 0.1 mm 5 mps 701 mmHg 51%
    11:00 +12°C° 0.1 mm 4 mps 702 mmHg 49%
    12:00 +12°C° 0.1 mm 4 mps 702 mmHg 46%
    13:00 +12°C° 0.3 mm 4 mps 702 mmHg 48%
    14:00 +12°C° 0.3 mm 4 mps 702 mmHg 50%
    15:00 +12°C° 0.3 mm 3 mps 702 mmHg 53%
    16:00 +11°C° 0.1 mm 3 mps 703 mmHg 56%
    17:00 +10°C° 0.1 mm 3 mps 703 mmHg 60%
    18:00 +10°C° 0.1 mm 3 mps 703 mmHg 64%
    19:00 +9°C° 0.2 mm 3 mps 703 mmHg 70%
    20:00 +7°C° 0.2 mm 3 mps 704 mmHg 76%
    21:00 +5°C° 0.2 mm 3 mps 705 mmHg 82%
    22:00 +5°C° 0.1 mm 3 mps 705 mmHg 83%
    23:00 +4°C° 0.1 mm 3 mps 706 mmHg 85%

    Tomorrow, 26 April, Friday

    Time Temperature Precipitation Wind Pressure Humidity
    00:00 +3°C° 0.1 mm 3 mps 707 mmHg 87%
    01:00 +4°C° 0 mm 4 mps 707 mmHg 87%
    02:00 +4°C° 0 mm 4 mps 708 mmHg 86%
    03:00 +4°C° 0 mm 4 mps 708 mmHg 86%
    04:00 +4°C° 0 mm 4 mps 709 mmHg 86%
    05:00 +4°C° 0 mm 4 mps 710 mmHg 86%
    06:00 +4°C° 0 mm 4 mps 710 mmHg 86%
    07:00 +6°C° 0 mm 4 mps 711 mmHg 78%
    08:00 +7°C° 0 mm 4 mps 712 mmHg 71%
    09:00 +9°C° 0 mm 5 mps 713 mmHg 64%
    10:00 +11°C° 0 mm 4 mps 714 mmHg 62%
    11:00 +11°C° 0 mm 4 mps 714 mmHg 60%
    12:00 +12°C° 0 mm 4 mps 715 mmHg 57%
    13:00 +11°C° 0 mm 4 mps 714 mmHg 59%
    14:00 +11°C° 0 mm 4 mps 714 mmHg 61%
    15:00 +11°C° 0 mm 3 mps 714 mmHg 63%
    16:00 +10°C° 0 mm 3 mps 714 mmHg 68%
    17:00 +9°C° 0 mm 3 mps 715 mmHg 72%
    18:00 +9°C° 0 mm 3 mps 715 mmHg 76%
    19:00 +8°C° 0 mm 2 mps 715 mmHg 82%
    20:00 +7°C° 0 mm 2 mps 716 mmHg 87%
    21:00 +6°C° 0 mm 1 mps 716 mmHg 92%
    22:00 +6°C° 0 mm 1 mps 716 mmHg 93%
    23:00 +6°C° 0 mm 1 mps 716 mmHg 94%

    Day after tomorrow, 27 April, Saturday

    Time Temperature Precipitation Wind Pressure Humidity
    00:00 +5°C° 0 mm 1 mps 716 mmHg 95%
    01:00 +5°C° 0 mm 1 mps 716 mmHg 95%
    02:00 +4°C° 0 mm 2 mps 716 mmHg 95%
    03:00 +4°C° 0 mm 2 mps 716 mmHg 95%
    04:00 +5°C° 0 mm 2 mps 716 mmHg 92%
    05:00 +6°C° 0 mm 1 mps 716 mmHg 89%
    06:00 +7°C° 0 mm 1 mps 716 mmHg 86%
    07:00 +7°C° 0 mm 2 mps 716 mmHg 80%
    08:00 +9°C° 0 mm 2 mps 717 mmHg 74%
    09:00 +12°C° 0 mm 2 mps 717 mmHg 69%
    10:00 +12°C° 0 mm 2 mps 717 mmHg 70%
    11:00 +12°C° 0 mm 2 mps 717 mmHg 71%
    12:00 +12°C° 0 mm 3 mps 717 mmHg 72%
    13:00 +12°C° 0.1 mm 3 mps 717 mmHg 73%
    14:00 +13°C° 0.1 mm 2 mps 717 mmHg 75%
    15:00 +13°C° 0.1 mm 2 mps 717 mmHg 77%
    16:00 +12°C° 0 mm 2 mps 717 mmHg 80%
    17:00 +10°C° 0 mm 2 mps 717 mmHg 84%
    18:00 +9°C° 0 mm 2 mps 717 mmHg 88%
    19:00 +10°C° 0 mm 1 mps 717 mmHg 90%
    20:00 +9°C° 0 mm 1 mps 717 mmHg 92%
    21:00 +7°C° 0 mm 0 mps 718 mmHg 95%
    22:00 +6°C° 0 mm 0 mps 718 mmHg 96%
    23:00 +6°C° 0 mm 0 mps 717 mmHg 97%

    28 April, Sunday

    Time Temperature Precipitation Wind Pressure Humidity
    00:00 +5°C° 0 mm 0 mps 717 mmHg 98%
    01:00 +5°C° 0 mm 0 mps 717 mmHg 98%
    02:00 +5°C° 0 mm 0 mps 717 mmHg 98%
    03:00 +5°C° 0 mm 0 mps 717 mmHg 98%
    04:00 +5°C° 0 mm 0 mps 716 mmHg 97%
    05:00 +5°C° 0 mm 1 mps 716 mmHg 97%
    06:00 +5°C° 0 mm 1 mps 716 mmHg 96%
    07:00 +8°C° 0 mm 1 mps 716 mmHg 84%
    08:00 +10°C° 0 mm 1 mps 716 mmHg 72%
    09:00 +12°C° 0 mm 1 mps 716 mmHg 60%
    10:00 +14°C° 0 mm 2 mps 716 mmHg 55%
    11:00 +15°C° 0 mm 2 mps 716 mmHg 51%
    12:00 +16°C° 0 mm 3 mps 715 mmHg 47%
    13:00 +16°C° 0 mm 3 mps 715 mmHg 49%
    14:00 +16°C° 0 mm 3 mps 714 mmHg 51%
    15:00 +16°C° 0 mm 3 mps 714 mmHg 52%
    16:00 +14°C° 0 mm 3 mps 714 mmHg 58%
    17:00 +13°C° 0 mm 2 mps 713 mmHg 64%
    18:00 +12°C° 0 mm 2 mps 713 mmHg 69%
    19:00 +9°C° 0 mm 2 mps 713 mmHg 77%
    20:00 +7°C° 0 mm 2 mps 713 mmHg 85%
    21:00 +6°C° 0 mm 1 mps 713 mmHg 93%
    22:00 +5°C° 0 mm 2 mps 713 mmHg 92%
    23:00 +5°C° 0 mm 2 mps 713 mmHg 92%

    29 April, Monday

    Time Temperature Precipitation Wind Pressure Humidity
    00:00 +5°C° 0 mm 2 mps 712 mmHg 91%
    01:00 +5°C° 0 mm 2 mps 712 mmHg 89%
    02:00 +4°C° 0 mm 2 mps 712 mmHg 88%
    03:00 +4°C° 0 mm 2 mps 711 mmHg 86%
    04:00 +5°C° 0 mm 2 mps 711 mmHg 84%
    05:00 +5°C° 0 mm 2 mps 711 mmHg 83%
    06:00 +5°C° 0 mm 2 mps 711 mmHg 81%
    07:00 +8°C° 0 mm 2 mps 711 mmHg 72%
    08:00 +12°C° 0 mm 2 mps 711 mmHg 62%
    09:00 +15°C° 0 mm 2 mps 712 mmHg 53%
    10:00 +16°C° 0 mm 2 mps 711 mmHg 51%
    11:00 +17°C° 0 mm 2 mps 711 mmHg 49%
    12:00 +18°C° 0 mm 3 mps 711 mmHg 47%
    13:00 +18°C° 0 mm 3 mps 711 mmHg 49%
    14:00 +18°C° 0 mm 3 mps 710 mmHg 50%
    15:00 +18°C° 0 mm 3 mps 710 mmHg 52%
    16:00 +16°C° 0 mm 3 mps 710 mmHg 58%
    17:00 +15°C° 0 mm 2 mps 709 mmHg 65%
    18:00 +14°C° 0 mm 2 mps 709 mmHg 71%
    19:00 +10°C° 0 mm 2 mps 709 mmHg 79%
    20:00 +8°C° 0 mm 2 mps 709 mmHg 87%
    21:00 +7°C° 0 mm 1 mps 710 mmHg 95%
    22:00 +7°C° 0 mm 1 mps 709 mmHg 95%
    23:00 +7°C° 0 mm 1 mps 709 mmHg 94%

    30 April, Tuesday

    Time Temperature Precipitation Wind Pressure Humidity
    00:00 +7°C° 0 mm 1 mps 709 mmHg 94%
    01:00 +6°C° 0 mm 1 mps 708 mmHg 92%
    02:00 +6°C° 0 mm 1 mps 708 mmHg 91%
    03:00 +6°C° 0 mm 1 mps 708 mmHg 89%
    04:00 +6°C° 0 mm 1 mps 708 mmHg 87%
    05:00 +7°C° 0 mm 1 mps 708 mmHg 84%
    06:00 +7°C° 0 mm 1 mps 707 mmHg 82%
    07:00 +9°C° 0 mm 2 mps 708 mmHg 72%
    08:00 +13°C° 0 mm 2 mps 708 mmHg 62%
    09:00 +15°C° 0 mm 2 mps 708 mmHg 52%
    10:00 +16°C° 0 mm 2 mps 708 mmHg 50%
    11:00 +17°C° 0 mm 2 mps 708 mmHg 48%
    12:00 +18°C° 0 mm 3 mps 708 mmHg 45%
    13:00 +18°C° 0 mm 3 mps 708 mmHg 46%
    14:00 +18°C° 0 mm 3 mps 708 mmHg 47%
    15:00 +18°C° 0 mm 3 mps 707 mmHg 48%
    16:00 +17°C° 0 mm 3 mps 707 mmHg 53%
    17:00 +15°C° 0 mm 2 mps 707 mmHg 59%
    18:00 +14°C° 0 mm 2 mps 707 mmHg 64%
    19:00 +12°C° 0 mm 2 mps 707 mmHg 72%
    20:00 +10°C° 0 mm 1 mps 707 mmHg 80%
    21:00 +7°C° 0 mm 1 mps 707 mmHg 87%
    22:00 +7°C° 0 mm 1 mps 707 mmHg 86%
    23:00 +7°C° 0 mm 1 mps 706 mmHg 84%
    Show more